OBJECT A, 56846

Orbit data source: Space-Track

You're viewing an Uncataloged Satellite

Recently launched and/or uncataloged satellites may have evolving metadata. Metadata may include but not limited to: Owner, Maufacturer, Bus, Motor, and Mission.

OBJECT A, 56846 is a satellite in SSO that was launched on Wed, 07 Jun 2023 UTC via a LIJIAN-1 launch vehicle from the Jiuquan Satellite Launch Center, China (JSC). Unknown objects in Earth's orbit typically refer to objects detected orbiting the Earth but have not yet been identified or cataloged. These objects could be anything from previously untracked satellites, spent rocket stages, debris from satellite collisions, or even natural meteoroids temporarily captured by Earth's gravity.

Loading next visibility...
Identifier
56846, 2023-081A
Orbit
SSO
Country
Flag of TBDTBD
Related business
None
Manufacturer
Unknown
Mission
Operational Commercial Radar Imaging
Bus & Motor
Unknown
Mass
Unknown
Launch date (UTC)
2023-06-07 (3 years ago)
Launch vehicle
LIJIAN-1
Launch site
Jiuquan Satellite Launch Center, China (JSC)
Object type
Unknown
Shape & HBR
Box + 2 Pan, 2.5 m
Radar Cross Section
4.795 m², Medium (>0.1 m² and < 1m²)

Expand to show TLE details & history
Last TLE update: 11 hours ago

TLE from 11 hours ago
0 OBJECT A
1 56846U 23081A   26133.16510666  .00005995  00000-0  26007-3 0  9995
2 56846  97.3716 203.9040 0001506  80.9474 279.1933 15.22713462162686
Epoch: 2026-05-13T03:57Z
TLE epoch observation values (Epoch: 2026-05-13T03:57:45.215Z)
Latitude
-0.00003°
Longitude
-86.46344°
Altitude
500.59 km
Speed
7.614 km/s
True Right ascension
13h 35m 36s
True Declination
0° 00' 00"
Sunlit
Object was in full shadow at epoch
Visualization orbit readout
Latitude
Unknown
Longitude
Unknown
Altitude
Unknown
Speed
Unknown
Apparent Right ascension
Unknown
Apparent Declination
Unknown
Sunlit
N/A
Visualization observer readout
Local Sidereal Time
23:29:04
Azimuth
Unknown
Elevation
Unknown
Doppler factor
Unknown
Orbital elements
Apogee altitude
495.656 km
Perigee altitude
493.586 km
Semi-major axis
6,872.758 km
Eccentricity
0.00015
Inclination
97.3716°
RAAN
203.904°
Arg. of periapsis
80.9474°
True anomaly
279.17626°
Mean anomaly
279.1933°
Eccentric anomaly
279.18478°
Mean motion
3.80931 °/min
Orbital period
94.51 mins
BSTAR
0.00026007
Loading maneuver chart data...
Computing Atmospheric mass density...
Loading historical data...
Loading historical data...
Loading historical data...
Loading historical data...
Loading historical data...
Loading historical data...
Loading historical data...

Documentation

Showing up to 5 results
|